Location: Saint-Usage
(47.1052°N, 5.2587°E)
Time: 11:50:46
(UTC+02:00)

ISS - Pass Details

Date: 25 September 2021
Orbit: 417 x 423 km, 51.6° (Epoch: 24 October)

Event Time Altitude Azimuth Distance (km) Brightness Sun altitude
Rises 20:05:44 0° 269° (W) 2,359 2.5 -6.8°
Reaches altitude 10° 20:07:54 10° 277° (W) 1,498 0.9 -7.2°
Maximum altitude 20:11:07 41° 349° (N) 621 -2.7 -7.7°
Drops below altitude 10° 20:14:20 10° 62° (ENE) 1,503 -1.4 -8.3°
Enters shadow 20:14:45 - 64° (ENE) 1,665 -1.2 -8.4°
